SHENZHOU-12 (48852 NORAD) Tracking and Keplerian Element Data

This shows tracking and keplerian element data for the satellite.

Feedback or suggestion? Click here.




ElementValue
Catalog48852
NameSHENZHOU-12
Epoch Orbit1438
Epoch Day259.97315475
Epoch Year2021
RAAN83.0686
Inclination41.5456
Eccentricity0.0004496
Argument of Perigee260.2637
Mean Anonmoly240.3337
Mean Motion15.60197815
Decay Rate0.00017488
L11 48852U 21053A 21259.97315475 .00017488 00000-0 21221-3 0 9997
L22 48852 41.5456 83.0686 0004496 260.2637 240.3337 15.60197815 14385

Live tracking and technical data element details for SHENZHOU-12 (NORAD 48852). SHENZHOU-12 can be tracked NOW for your location showing map with azimuth and elevation plus other details from your city location.

Track the satellite on the map from your city or location and see movement details for azimuth, elevation, latitude, longitude, range, height, and movement on the map or in text.







IsCatalogInMostPopularTable: catalog: 48852, numindb: 37
Update: records affected: 1



GetName: 48852 SHENZHOU-12

Hit Count: updated at: Tue, 19 Oct 2021 09:32:09 GMT